sat.trackr.live / text

‹ back to catalog

STARLINK-30469

NORAD 57896 · 2023-146F

PAYLOAD ACTIVE UNKNOWN

§ Identity

Operator
Country
US
Launch date
2023-09-20
Launch site
AFETR
Launch vehicle
Mass (kg)
RCS (m²)

Purposes: comms

External: N2YO · Heavens-Above · Gunter

§ Orbital elements

Epoch: 2026-09-20T09:23:20.011776Z

Period
94.27 min
Inclination
43.0029°
Eccentricity
0.0001219
Mean motion
15.27570998 rev/d
Perigee alt
482.2 km
Apogee alt
483.9 km
Semi-major
6,861.2 km
B*
4.8085e-5
RAAN
294.6035°
Arg perigee
283.1507°
Mean anomaly
76.9209°
Rev number
16,683

§ Raw data

STARLINK-304691 57896U 23146F   26263.39120384  .00001061  00000+0  48085-4 0  99962 57896  43.0029 294.6035 0001219 283.1507  76.9209 15.27570998166833

JSON: /api/v1/satellites/57896 · /tle

For live sub-satellite position, see the globe view (requires WebGL).

§ Visibility from observer

Set your observer location to see the next 7 days of passes ≥ 10°. The values pass through the URL so the page stays shareable.

No JS? Fill the form by hand. The geolocation button needs JavaScript.